GW0245 Weather Reports


Display with metric or nautical units.
time (UTC)temp
F
wind
direction
speed
MPH
gust
MPH
rain 1hr
in
rain 24hr
in
rain mn
in
humidity
%
barometer
mb
20260903091600 68 258 2.0 4.0 0.00 0.03 0.00 48 1017.5
20260903090108 68 0 0.0 2.0 0.00 0.03 0.00 46 1017.5
20260903084604 69 0 0.0 6.0 0.00 0.03 0.00 45 1017.4
20260903083115 69 0 0.0 2.0 0.00 0.03 0.00 43 1017.5
20260903081625 70 198 1.0 5.0 0.00 0.03 0.00 42 1017.6
20260903080104 70 0 2.0 3.0 0.00 0.03 0.00 43 1017.7
20260903074612 70 251 3.0 7.0 0.00 0.03 0.00 43 1017.6
20260903073135 70 0 1.0 5.0 0.00 0.03 0.00 43 1017.8
20260903071621 70 0 1.0 4.0 0.00 0.03 0.00 43 1017.9
20260903070105 70 244 0.0 4.0 0.00 0.03 0.00 44 1017.8
20260903064558 70 0 1.0 3.0 0.00 0.03 0.03 44 1017.8
20260903063104 69 234 2.0 8.0 0.00 0.03 0.03 46 1017.8
20260903061604 69 296 0.0 3.0 0.00 0.03 0.03 48 1017.7
20260903060149 70 287 1.0 3.0 0.00 0.03 0.03 47 1017.7
20260903054602 71 0 1.0 4.0 0.00 0.03 0.03 45 1017.7
20260903053104 71 0 1.0 3.0 0.00 0.03 0.03 46 1017.6
20260903051608 72 224 0.0 1.0 0.00 0.03 0.03 45 1017.7
20260903050107 74 0 1.0 4.0 0.00 0.03 0.03 42 1017.8
20260903044605 74 250 0.0 2.0 0.00 0.03 0.03 41 1017.9
20260903043105 76 214 0.0 3.0 0.00 0.03 0.03 39 1017.8
20260903041602 75 218 2.0 7.0 0.00 0.03 0.03 39 1017.8
20260903040112 77 227 2.0 7.0 0.00 0.03 0.03 40 1017.6
20260903034603 75 234 4.0 9.0 0.00 0.03 0.03 44 1017.5
20260903033102 76 210 1.0 5.0 0.00 0.03 0.03 43 1017.4
20260903031604 76 230 1.0 9.0 0.00 0.03 0.03 43 1017.1
20260903030106 77 226 2.0 8.0 0.00 0.03 0.03 42 1016.9
20260903024602 77 264 3.0 7.0 0.00 0.03 0.03 41 1016.6
20260903023109 78 244 2.0 7.0 0.00 0.03 0.03 41 1016.5
20260903021611 79 240 1.0 6.0 0.00 0.03 0.03 39 1016.4
20260903020106 80 238 2.0 5.0 0.00 0.03 0.03 39 1016.3
20260903014609 81 220 1.0 5.0 0.00 0.03 0.03 38 1016.4
20260903013109 82 192 1.0 5.0 0.00 0.03 0.03 37 1016.3
20260903011606 84 188 2.0 10.0 0.00 0.03 0.03 35 1016.3
20260903004604 84 204 3.0 8.0 0.00 0.03 0.03 35 1016.5
20260903003109 85 0 1.0 10.0 0.00 0.03 0.03 35 1016.5
20260903001625 88 163 1.0 7.0 0.00 0.03 0.03 33 1016.5
20260903000103 86 164 2.0 10.0 0.00 0.03 0.03 34 1016.6
20260902234626 87 224 4.0 9.0 0.00 0.03 0.03 34 1016.6
20260902233105 86 0 3.0 12.0 0.00 0.03 0.03 34 1016.6
20260902231614 86 205 0.0 12.0 0.00 0.03 0.03 36 1016.7
20260902230115 86 225 1.0 9.0 0.00 0.03 0.03 35 1016.7
20260902224605 86 185 6.0 15.0 0.00 0.10 0.03 33 1017.0
20260902223059 86 227 5.0 13.0 0.00 0.10 0.03 35 1017.0
20260902221607 87 207 4.0 12.0 0.00 0.10 0.03 37 1017.1
20260902220107 87 155 2.0 11.0 0.00 0.10 0.03 40 1017.2
20260902214613 87 195 2.0 6.0 0.00 0.10 0.03 39 1017.5
20260902213102 86 165 5.0 15.0 0.00 0.10 0.03 41 1017.6
20260902211606 87 130 1.0 17.0 0.00 0.10 0.03 40 1017.7
20260902210103 88 153 3.0 11.0 0.00 0.10 0.03 38 1017.8
20260902204603 88 212 5.0 20.0 0.00 0.10 0.03 40 1018.0
20260902203101 86 117 3.0 16.0 0.00 0.10 0.03 41 1018.2
20260902201606 87 128 2.0 15.0 0.00 0.10 0.03 41 1018.3
20260902194604 87 140 3.0 10.0 0.00 0.10 0.03 41 1018.6
20260902193104 87 170 4.0 10.0 0.00 0.10 0.03 41 1018.8
20260902191605 86 163 3.0 15.0 0.00 0.10 0.03 42 1019.1
20260902190106 87 155 5.0 12.0 0.00 0.10 0.03 44 1019.1
20260902184601 87 189 4.0 12.0 0.00 0.10 0.03 42 1019.4
20260902183102 86 155 7.0 15.0 0.00 0.10 0.03 42 1019.5
20260902181601 86 182 6.0 16.0 0.00 0.10 0.03 43 1019.5
20260902180105 85 156 5.0 14.0 0.00 0.10 0.03 44 1019.6
20260902174608 85 128 6.0 10.0 0.00 0.10 0.03 46 1019.7
20260902173106 84 150 5.0 10.0 0.00 0.10 0.03 49 1020.1
20260902171607 83 213 5.0 13.0 0.00 0.10 0.03 50 1020.0
20260902170108 81 62 3.0 7.0 0.00 0.10 0.03 55 1020.0
20260902164606 80 80 1.0 4.0 0.00 0.10 0.03 61 1020.1
20260902163105 79 0 1.0 4.0 0.00 0.10 0.03 63 1020.1
20260902161615 78 0 1.0 5.0 0.00 0.10 0.03 65 1020.1
20260902154602 76 0 0.0 3.0 0.00 0.10 0.03 68 1020.0
20260902153117 76 0 0.0 3.0 0.00 0.10 0.03 66 1020.1
20260902151608 75 57 1.0 3.0 0.00 0.10 0.03 69 1020.1
20260902144613 71 0 0.0 2.0 0.00 0.10 0.03 77 1020.0
20260902143102 69 0 0.0 2.0 0.00 0.10 0.03 85 1020.1
20260902141602 69 0 0.0 4.0 0.00 0.10 0.03 82 1019.9
20260902140105 68 302 0.0 4.0 0.00 0.10 0.03 84 1019.8
20260902134601 66 0 0.0 2.0 0.00 0.10 0.03 87 1019.5
20260902133103 65 0 1.0 3.0 0.00 0.10 0.03 87 1019.5
20260902131604 64 265 2.0 4.0 0.00 0.10 0.03 88 1019.3
20260902130104 64 0 0.0 0.0 0.00 0.10 0.03 88 1019.2
20260902124604 65 0 0.0 0.0 0.00 0.10 0.03 87 1019.1
20260902123104 65 0 0.0 2.0 0.00 0.10 0.03 87 1018.9
20260902121613 65 263 1.0 3.0 0.00 0.10 0.03 87 1018.8
20260902120111 65 279 1.0 3.0 0.00 0.10 0.03 87 1018.7
20260902114616 65 279 0.0 3.0 0.00 0.10 0.03 87 1018.7
20260902113104 65 270 0.0 3.0 0.00 0.10 0.03 88 1018.7
20260902111605 65 234 2.0 5.0 0.00 0.10 0.03 89 1018.6
20260902110110 65 254 0.0 3.0 0.00 0.10 0.03 90 1018.7
20260902104557 66 0 0.0 2.0 0.00 0.10 0.03 90 1018.7
20260902103120 66 0 0.0 3.0 0.00 0.10 0.03 90 1018.7
20260902101601 66 237 0.0 2.0 0.03 0.10 0.03 90 1018.8
20260902100101 66 0 0.0 2.0 0.03 0.10 0.03 88 1018.8
20260902094600 66 216 1.0 3.0 0.03 0.10 0.03 86 1018.9
20260902093111 67 0 0.0 10.0 0.03 0.10 0.03 81 1018.8